Location: Moscow
(38.3171°N, 79.0889°W)
Time: 23:53:06
(UTC+00:00)

ARIANE 5 R/B - Pass Details

Date: 07 November 2025
Orbit: 747 x 791 km, 98.8° (Epoch: 14 December)

Event Time Altitude Azimuth Distance (km) Brightness Sun altitude
Rises 22:36:43 0° 157° (SSE) 3,191 5.6 -5.7°
Reaches altitude 10° 22:39:01 10° 154° (SSE) 2,266 4.9 -6.2°
Maximum altitude 22:43:56 65° 74° (ENE) 821 2.4 -7.1°
Drops below altitude 10° 22:48:52 10° 353° (N) 2,271 4.9 -8.0°
Sets 22:51:10 0° 350° (N) 3,199 5.7 -8.5°
